TELLUMGE Weather Reports


time (UTC)temp
C
wind
direction
speed
KPH
gust
KPH
rain 1hr
cm
rain 24hr
cm
rain mn
cm
humidity
%
barometer
mb
20260505223002 23 56 1.6 8.0 0.00 0.00 0.00 82 1015.7
20260505221505 23 46 0.0 6.4 0.00 0.00 0.00 83 1015.7
20260505220010 22 90 0.0 8.0 0.00 0.00 0.00 85 1015.5
20260505213015 22 64 0.0 6.4 0.00 0.00 0.00 87 1015.3
20260505211503 22 82 0.0 4.8 0.00 0.00 0.00 87 1015.3
20260505210008 21 79 3.2 6.4 0.00 0.00 0.00 89 1015.1
20260505204514 21 27 0.0 4.8 0.00 0.00 0.00 89 1015.0
20260505201520 21 85 0.0 3.2 0.00 0.00 0.00 90 1014.7
20260505194508 21 67 0.0 4.8 0.00 0.00 0.00 90 1014.5
20260505190021 21 76 1.6 9.7 0.00 0.00 0.00 88 1013.9
20260505184524 21 81 1.6 11.3 0.00 0.00 0.00 87 1013.9
20260505183010 21 77 0.0 11.3 0.00 0.00 0.00 87 1013.8
20260505180017 21 51 1.6 8.0 0.00 0.00 0.00 89 1013.9
20260505174525 21 56 1.6 6.4 0.00 0.00 0.00 88 1013.9
20260505173024 21 79 3.2 9.7 0.00 0.00 0.00 88 1013.8
20260505171511 22 72 3.2 9.7 0.00 0.00 0.00 88 1013.9
20260505170017 22 82 3.2 6.4 0.00 0.00 0.00 87 1014.1
20260505164517 22 76 1.6 9.7 0.00 0.00 0.00 88 1014.1
20260505163020 21 78 1.6 4.8 0.00 0.00 0.00 89 1014.1
20260505161538 21 78 1.6 8.0 0.00 0.00 0.00 89 1014.3
20260505153020 21 72 3.2 9.7 0.00 0.00 0.00 88 1014.9
20260505151522 21 74 3.2 4.8 0.00 0.00 0.00 88 1015.0
20260505124510 21 63 1.6 6.4 0.00 0.00 0.00 88 1016.2
20260505123012 21 75 3.2 6.4 0.00 0.00 0.00 89 1016.4
20260505121529 21 80 3.2 4.8 0.00 0.00 0.00 89 1016.5
20260505120019 21 355 1.6 8.0 0.00 0.00 0.00 88 1016.5
20260505114504 21 70 0.0 4.8 0.00 0.00 0.00 88 1016.8
20260505113007 22 77 1.6 4.8 0.00 0.00 0.00 87 1016.8
20260505111512 22 52 0.0 8.0 0.00 0.00 0.00 86 1016.8
20260505101510 20 116 0.0 0.0 0.00 0.00 0.00 92 1016.5
20260505100017 21 116 0.0 0.0 0.00 0.00 0.00 91 1016.4
20260505094520 21 116 0.0 0.0 0.00 0.00 0.00 91 1016.4
20260505093024 21 116 0.0 0.0 0.00 0.00 0.00 90 1016.2
20260505091521 22 117 0.0 0.0 0.00 0.00 0.00 89 1015.9
20260505083021 22 116 0.0 0.0 0.00 0.00 0.00 88 1015.1
20260505081523 22 116 0.0 0.0 0.00 0.00 0.00 87 1015.0
20260505080038 23 116 0.0 0.0 0.00 0.00 0.00 86 1015.0
20260505073027 23 129 0.0 1.6 0.00 0.00 0.00 85 1014.8
20260505071519 24 98 0.0 1.6 0.00 0.00 0.00 83 1014.6
20260505070021 24 184 0.0 3.2 0.00 0.00 0.00 83 1014.5
20260505064523 24 137 0.0 1.6 0.00 0.00 0.00 82 1014.2
20260505060015 25 90 0.0 1.6 0.00 0.00 0.00 80 1014.0
20260505054524 25 11 0.0 4.8 0.00 0.00 0.00 78 1013.9
20260505053009 25 204 0.0 3.2 0.00 0.00 0.00 77 1013.9
20260505051511 25 88 0.0 3.2 0.00 0.00 0.00 80 1013.8
20260505041506 27 183 0.0 3.2 0.00 0.00 0.00 68 1013.8
20260505040015 27 276 0.0 1.6 0.00 0.00 0.00 69 1013.8
20260505034518 27 190 0.0 3.2 0.00 0.00 0.00 67 1014.0
20260505033005 27 166 0.0 0.0 0.00 0.00 0.00 68 1014.2
20260505031506 27 54 0.0 4.8 0.00 0.00 0.00 72 1014.4
20260505030010 27 101 0.0 8.0 0.00 0.00 0.00 69 1014.5
20260505024513 27 222 0.0 1.6 0.00 0.00 0.00 72 1014.6
20260505023024 27 263 0.0 3.2 0.00 0.00 0.00 70 1014.8
20260505021503 27 82 0.0 1.6 0.00 0.00 0.00 70 1015.0
20260505020010 27 140 0.0 3.2 0.00 0.00 0.00 69 1015.4
20260505014508 26 85 0.0 6.4 0.00 0.00 0.00 69 1015.7
20260505013016 27 108 0.0 8.0 0.00 0.00 0.00 72 1015.9
20260505011520 26 77 0.0 6.4 0.00 0.00 0.00 72 1016.0
20260505010005 26 250 0.0 4.8 0.00 0.00 0.00 75 1016.2
20260505004513 26 226 1.6 6.4 0.00 0.00 0.00 73 1016.1
20260505003010 26 240 0.0 6.4 0.00 0.00 0.00 74 1016.0
20260505001514 25 110 0.0 9.7 0.00 0.00 0.00 77 1016.7
20260505000022 25 204 0.0 8.0 0.00 0.00 0.00 75 1016.8
20260504234521 25 255 0.0 4.8 0.00 0.00 0.00 77 1016.8
20260504233008 25 337 0.0 3.2 0.00 0.00 0.00 78 1017.0
20260504231512 23 86 0.0 6.4 0.00 0.00 0.00 83 1016.8
20260504230017 23 87 3.2 8.0 0.00 0.00 0.00 82 1016.8
20260504224530 22 69 3.2 9.7 0.00 0.00 0.00 84 1016.8